Content
SEND FEEDBACK

Daily
Averages
Monthly
Summary
Canada

MONTREAL, QUEBEC


Home > North America > Canada > Quebec
Elevation: 118 feet     Latitude: 45 28N     Longitude: 073 45W

WEATHER
 
SELECT A DAY
Number of Records: 198,177;   Date Range: 1/1/95 - 7/30/14
 
SHARE

PRINT THIS DATA

[ ← Previous Day ]
WEATHER ALMANAC - MARCH 27, 2013
[ Next Day → ]
[ °C ]   °F
Weather ElementAverageHighLow
Temperature39.1 °F44.6 °F (2:00 pm)30.2 °F (6:00 am)
Dewpoint27 °F32 °F (11:00 pm)24.8 °F (3:00 am)
Humidity61.1 %86 % (6:00 am)39 % (2:00 pm)
Barometer29.86 in29.94 in (9:00 pm)29.78 in (1:00 am)
Wind Speed5.1 mph11.5 mph (5:00 pm)
Weather ElementAverage
Visibility19.8 mi
Wind DirectionSSW (217.5 °)

Weather ElementTotal
Precipitation---
Heating Degree Days27.6 (Base 65)
Averaged from 28 records on March 27, 2013
WEATHER CONDITIONS BREAKOUT
WIND DIRECTION BREAKOUT
WEATHER BY HOUR - MARCH 27, 2013
[ °C ]   °F
Local TimeTemperatureDewpointHumidityBarometerVisibilityWind DirectionWind SpeedGust SpeedPrecipitationEventsConditions
1:00 AM37.4 °F26.6 °F65 %29.78 in15.0 miSW (230°)3.5 mphOvercast
2:00 AM37.0 °F27.0 °F57 %29.79 in15.0 miWest (270°)3.5 mphPartly Cloudy
2:00 AM37.4 °F26.6 °F65 %29.79 in15.0 miCalmOvercast
3:00 AM37.4 °F24.8 °F60 %29.79 in15.0 miSouth (190°)3.5 mphMostly Cloudy
3:16 AM35.6 °F26.6 °F70 %29.79 in15.0 miESE (120°)4.6 mphScattered Clouds
4:00 AM33.8 °F24.8 °F70 %29.79 in15.0 miWSW (250°)3.5 mphPartly Cloudy
5:00 AM32.0 °F24.8 °F75 %29.80 in15.0 miCalmPartly Cloudy
6:00 AM30.2 °F26.6 °F86 %29.82 in15.0 miCalmScattered Clouds
7:00 AM30.2 °F24.8 °F80 %29.83 in15.0 miCalmScattered Clouds
8:00 AM34.0 °F26.0 °F64 %29.85 in15.0 miNNW (340°)3.5 mphScattered Clouds
8:00 AM33.8 °F26.6 °F75 %29.85 in15.0 miNorth (350°)3.5 mphScattered Clouds
9:00 AM37.4 °F28.4 °F70 %29.86 in30.0 miNorth (360°)3.5 mphMostly Cloudy
10:00 AM39.2 °F26.6 °F61 %29.87 in30.0 miNW (320°)3.5 mphMostly Cloudy
11:00 AM41.0 °F26.6 °F57 %29.87 in15.0 miCalmMostly Cloudy
12:00 PM41.0 °F28.4 °F61 %29.87 in15.0 miSW (220°)8.1 mphMostly Cloudy
1:00 PM42.8 °F28.4 °F57 %29.87 in15.0 miSSW (200°)8.1 mphMostly Cloudy
2:00 PM44.0 °F27.0 °F39 %29.87 in28.0 miWest (270°)6.9 mphOvercast
2:00 PM44.6 °F26.6 °F49 %29.87 in30.0 miWest (270°)10.4 mphOvercast
3:00 PM44.6 °F26.6 °F49 %29.87 in30.0 miWNW (290°)8.1 mphOvercast
4:00 PM44.6 °F28.4 °F53 %29.87 in30.0 miWest (270°)10.4 mphOvercast
5:00 PM44.6 °F26.6 °F49 %29.88 in30.0 miWest (260°)11.5 mphOvercast
6:00 PM44.6 °F26.6 °F49 %29.90 in30.0 miWest (270°)9.2 mphOvercast
7:00 PM42.8 °F26.6 °F53 %29.91 in30.0 miWest (260°)5.8 mphOvercast
8:00 PM42.0 °F28.0 °F44 %29.93 in15.0 miWSW (250°)8.1 mphOvercast
8:00 PM41.0 °F26.6 °F57 %29.92 in15.0 miWSW (250°)6.9 mphOvercast
9:00 PM41.0 °F28.4 °F61 %29.94 in15.0 miWest (260°)5.8 mphRainLight Rain Showers
10:00 PM39.2 °F28.4 °F65 %29.94 in15.0 miWest (280°)5.8 mphOvercast
11:00 PM41.0 °F32.0 °F70 %29.94 in15.0 miNW (310°)4.6 mphRainLight Rain Showers
Hourly data recorded from CYUL, located miles away from Montreal, Quebec







STORIES FROM OUR PARTNERS